Weather History for Monroe, MI

Change the Weather History Date:

Sunday, June 2, 2013

  Actual Average Record
Temperature  
Mean Temperature 67 °F -  
Max Temperature 75 °F 76 °F 95 °F (1988)
Min Temperature 57 °F 54 °F 40 °F (1931)
Cooling Degree Days 2    
Growing Degree Days 17 (Base 50)    
Moisture  
Dew Point 59 °F    
Average Humidity 74    
Maximum Humidity 94    
Minimum Humidity 53    
Precipitation  
Precipitation 0.00 in - - ()
Sea Level Pressure  
Sea Level Pressure 29.80 in    
Wind  
Wind Speed 10 mph (West)    
Max Wind Speed 18 mph    
Max Gust Speed 26 mph    
Visibility 10 miles    
Events Rain    
Averages and records for this station are not official NWS values.
T = Trace of Precipitation, MM = Missing Value Source: NWS Daily Summary

Daily Weather History Graph

Daily Weather History Graph

Search for Another Location

Airport:

Trip Planner

Search our weather history database for the weather conditions in past years. The results will help you decide how hot, cold, wet, or windy it might be!

Date:

Astronomy

Jun. 02, 2013 Rise Set
Actual Time 6:00 AM EDT 9:03 PM EDT
Civil Twilight 5:26 AM EDT 9:37 PM EDT
Nautical Twilight 4:43 AM EDT 10:20 PM EDT
Astronomical Twilight 3:53 AM EDT 11:11 PM EDT
Moon 2:31 AM EDT (6/2) 3:28 PM EDT (6/2)
Length of Visible Light 16h 10m
Length of Day
15h 03m
Waning Crescent, 31% of the Moon is Illuminated
Jun 2
Waning Crescent
Jun 8
New
Jun 16
First Quarter
Jun 23
Full
Jun 30
Last Quarter

Hourly Weather History & Observations

Time (EDT) Temp. Dew Point Humidity Pressure Visibility Wind Dir Wind Speed Gust Speed Precip Events Conditions
12:11 AM 69.8 °F 66.2 °F 88% 29.70 in 10.0 mi SSW 3.5 mph - N/A   Mostly Cloudy
12:32 AM 69.8 °F 66.2 °F 88% 29.70 in 7.0 mi Calm Calm - N/A   Mostly Cloudy
12:52 AM 69.8 °F 68.0 °F 94% 29.70 in 7.0 mi South 4.6 mph - N/A Rain Light Rain
1:12 AM 69.8 °F 68.0 °F 94% 29.69 in 5.0 mi South 6.9 mph - N/A Rain Light Rain
1:32 AM 69.8 °F 68.0 °F 94% 29.69 in 5.0 mi South 5.8 mph - N/A   Overcast
1:52 AM 69.8 °F 68.0 °F 94% 29.68 in 5.0 mi SSW 5.8 mph - N/A   Overcast
2:12 AM 69.8 °F 66.2 °F 88% 29.68 in 10.0 mi SW 8.1 mph - N/A   Scattered Clouds
2:32 AM 69.8 °F 66.2 °F 88% 29.68 in 10.0 mi SW 8.1 mph - N/A   Clear
2:52 AM 69.8 °F 66.2 °F 88% 29.68 in 10.0 mi SW 11.5 mph 17.3 mph N/A   Clear
3:12 AM 69.8 °F 66.2 °F 88% 29.69 in 10.0 mi SW 11.5 mph - N/A   Scattered Clouds
3:32 AM 69.8 °F 64.4 °F 83% 29.69 in 10.0 mi SW 11.5 mph 18.4 mph N/A   Scattered Clouds
3:53 AM 68.0 °F 64.4 °F 88% 29.69 in 10.0 mi SW 10.4 mph 17.3 mph N/A   Clear
4:13 AM 68.0 °F 64.4 °F 88% 29.69 in 10.0 mi SW 12.7 mph - N/A   Scattered Clouds
4:33 AM 68.0 °F 64.4 °F 88% 29.69 in 10.0 mi SW 10.4 mph - N/A   Scattered Clouds
4:53 AM 66.2 °F 64.4 °F 94% 29.69 in 10.0 mi SW 9.2 mph - N/A   Clear
5:13 AM 66.2 °F 64.4 °F 94% 29.70 in 10.0 mi SW 9.2 mph - N/A   Clear
5:33 AM 66.2 °F 62.6 °F 88% 29.70 in 10.0 mi SW 9.2 mph - N/A   Scattered Clouds
5:53 AM 66.2 °F 62.6 °F 88% 29.70 in 10.0 mi SW 12.7 mph 16.1 mph N/A   Mostly Cloudy
6:13 AM 66.2 °F 60.8 °F 83% 29.71 in 10.0 mi WSW 13.8 mph 17.3 mph N/A   Mostly Cloudy
6:33 AM 66.2 °F 60.8 °F 83% 29.71 in 10.0 mi WSW 13.8 mph - N/A   Scattered Clouds
6:54 AM 64.4 °F 60.8 °F 88% 29.73 in 10.0 mi WSW 12.7 mph 20.7 mph N/A   Scattered Clouds
7:14 AM 66.2 °F 60.8 °F 83% 29.74 in 10.0 mi WSW 16.1 mph 23.0 mph N/A   Mostly Cloudy
7:34 AM 66.2 °F 60.8 °F 83% 29.74 in 10.0 mi SW 12.7 mph 19.6 mph N/A   Mostly Cloudy
7:54 AM 66.2 °F 60.8 °F 83% 29.75 in 10.0 mi WSW 13.8 mph - N/A   Mostly Cloudy
8:14 AM 66.2 °F 60.8 °F 83% 29.75 in 10.0 mi WSW 15.0 mph 18.4 mph N/A   Scattered Clouds
8:34 AM 66.2 °F 60.8 °F 83% 29.75 in 10.0 mi WSW 18.4 mph 24.2 mph N/A   Scattered Clouds
8:54 AM 68.0 °F 60.8 °F 78% 29.76 in 10.0 mi WSW 15.0 mph 24.2 mph N/A   Mostly Cloudy
9:14 AM 69.8 °F 60.8 °F 73% 29.76 in 10.0 mi WSW 17.3 mph 23.0 mph N/A   Mostly Cloudy
9:34 AM 69.8 °F 60.8 °F 73% 29.76 in 10.0 mi WSW 15.0 mph 23.0 mph N/A   Mostly Cloudy
9:54 AM 69.8 °F 60.8 °F 73% 29.76 in 10.0 mi WSW 12.7 mph 20.7 mph N/A   Mostly Cloudy
10:14 AM 69.8 °F 60.8 °F 73% 29.77 in 10.0 mi WSW 15.0 mph - N/A   Mostly Cloudy
10:35 AM 71.6 °F 60.8 °F 69% 29.77 in 10.0 mi WSW 16.1 mph 21.9 mph N/A   Mostly Cloudy
10:55 AM 71.6 °F 60.8 °F 69% 29.78 in 10.0 mi WSW 18.4 mph 26.5 mph N/A   Mostly Cloudy
11:15 AM 71.6 °F 60.8 °F 69% 29.78 in 10.0 mi West 13.8 mph 24.2 mph N/A   Overcast
11:35 AM 69.8 °F 60.8 °F 73% 29.79 in 10.0 mi WSW 15.0 mph 18.4 mph N/A   Overcast
11:55 AM 71.6 °F 60.8 °F 69% 29.79 in 10.0 mi WSW 11.5 mph - N/A   Mostly Cloudy
12:15 PM 71.6 °F 60.8 °F 69% 29.80 in 10.0 mi WSW 16.1 mph 23.0 mph N/A   Mostly Cloudy
12:35 PM 71.6 °F 60.8 °F 69% 29.81 in 10.0 mi WSW 15.0 mph - N/A   Overcast
12:55 PM 71.6 °F 60.8 °F 69% 29.81 in 10.0 mi WSW 13.8 mph 18.4 mph N/A   Mostly Cloudy
1:15 PM 71.6 °F 59.0 °F 64% 29.82 in 10.0 mi West 15.0 mph 23.0 mph N/A   Overcast
1:35 PM 71.6 °F 60.8 °F 69% 29.82 in 10.0 mi West 8.1 mph - N/A   Overcast
1:56 PM 71.6 °F 59.0 °F 64% 29.83 in 10.0 mi West 12.7 mph 19.6 mph N/A   Overcast
2:16 PM 73.4 °F 60.8 °F 65% 29.83 in 10.0 mi West 17.3 mph 21.9 mph N/A   Mostly Cloudy
2:36 PM 73.4 °F 57.2 °F 57% 29.83 in 10.0 mi West 18.4 mph 21.9 mph N/A   Scattered Clouds
2:56 PM 73.4 °F 57.2 °F 57% 29.84 in 10.0 mi West 16.1 mph 23.0 mph N/A   Scattered Clouds
3:16 PM 75.2 °F 57.2 °F 53% 29.84 in 10.0 mi West 15.0 mph 21.9 mph N/A   Scattered Clouds
3:36 PM 73.4 °F 57.2 °F 57% 29.84 in 10.0 mi WNW 16.1 mph 21.9 mph N/A   Mostly Cloudy
3:56 PM 73.4 °F 57.2 °F 57% 29.85 in 10.0 mi West 16.1 mph - N/A   Mostly Cloudy
4:16 PM 73.4 °F 57.2 °F 57% 29.85 in 10.0 mi West 15.0 mph - N/A   Mostly Cloudy
4:31 PM 73.4 °F 57.2 °F 57% 29.85 in 10.0 mi West 17.3 mph 21.9 mph N/A   Mostly Cloudy
4:52 PM 73.4 °F 57.2 °F 57% 29.85 in 10.0 mi WNW 16.1 mph 20.7 mph N/A   Scattered Clouds
5:12 PM 71.6 °F 57.2 °F 60% 29.85 in 10.0 mi West 12.7 mph 20.7 mph N/A   Mostly Cloudy
5:32 PM 69.8 °F 57.2 °F 64% 29.86 in 10.0 mi NW 9.2 mph - N/A   Overcast
5:52 PM 71.6 °F 57.2 °F 60% 29.85 in 10.0 mi NW 13.8 mph - N/A   Overcast
6:12 PM 69.8 °F 55.4 °F 60% 29.86 in 10.0 mi WNW 13.8 mph 19.6 mph N/A   Mostly Cloudy
6:32 PM 69.8 °F 55.4 °F 60% 29.86 in 10.0 mi WNW 12.7 mph 18.4 mph N/A   Mostly Cloudy
6:52 PM 69.8 °F 55.4 °F 60% 29.86 in 10.0 mi WNW 15.0 mph 19.6 mph N/A   Scattered Clouds
7:12 PM 69.8 °F 55.4 °F 60% 29.86 in 10.0 mi NW 16.1 mph 20.7 mph N/A   Clear
7:32 PM 66.2 °F 55.4 °F 68% 29.88 in 10.0 mi NW 13.8 mph 20.7 mph N/A   Scattered Clouds
7:52 PM 64.4 °F 53.6 °F 68% 29.89 in 10.0 mi NW 16.1 mph 21.9 mph N/A   Clear
8:12 PM 62.6 °F 53.6 °F 72% 29.90 in 10.0 mi NNW 15.0 mph 18.4 mph N/A   Clear
8:33 PM 60.8 °F 51.8 °F 72% 29.90 in 10.0 mi NW 10.4 mph 19.6 mph N/A   Clear
8:53 PM 60.8 °F 51.8 °F 72% 29.91 in 10.0 mi NW 13.8 mph 19.6 mph N/A   Clear
9:13 PM 60.8 °F 51.8 °F 72% 29.91 in 10.0 mi NW 6.9 mph - N/A   Clear
9:33 PM 59.0 °F 51.8 °F 77% 29.92 in 10.0 mi NW 8.1 mph - N/A   Clear
9:53 PM 59.0 °F 51.8 °F 77% 29.93 in 10.0 mi WNW 8.1 mph - N/A   Mostly Cloudy
10:13 PM 59.0 °F 51.8 °F 77% 29.94 in 10.0 mi WNW 8.1 mph - N/A   Overcast
10:33 PM 59.0 °F 50.0 °F 72% 29.95 in 10.0 mi NW 6.9 mph - N/A   Overcast
10:53 PM 59.0 °F 51.8 °F 77% 29.95 in 10.0 mi NW 6.9 mph - N/A   Overcast
11:13 PM 59.0 °F 48.2 °F 67% 29.96 in 10.0 mi NNW 9.2 mph - N/A   Overcast
11:34 PM 59.0 °F 48.2 °F 67% 29.96 in 10.0 mi NNW 9.2 mph - N/A   Overcast
11:54 PM 57.2 °F 48.2 °F 72% 29.97 in 10.0 mi NNW 6.9 mph - N/A   Overcast